Boulder Muni, Boulder, CO, CO

3:52 AM MDT on July 22, 2017 (GMT -0600)
Boulder Muni, Boulder, CO

Weather History for KBDU - April, 2014

Change the Weather History Date:

Monday, April 7, 2014

  Actual Average Record
Temperature  
Mean Temperature 47 °F -  
Max Temperature 57 °F - 73 °F (2017)
Min Temperature 37 °F - 37 °F (2014)
Degree Days  
Heating Degree Days 18    
Month to date heating degree days  
Cooling Degree Days 0    
Month to date cooling degree days  
Moisture  
Dew Point 23 °F    
Average Humidity 43    
Maximum Humidity 81    
Minimum Humidity 18    
Precipitation  
Precipitation 0.00 in - 0.00 in (2017)
Sea Level Pressure  
Sea Level Pressure 30.11 in    
Wind  
Wind Speed 5 mph (NW)    
Max Wind Speed 22 mph    
Max Gust Speed 29 mph    
Visibility 10 miles    
Events      
T = Trace of Precipitation, MM = Missing Value Source: NWS Daily Summary

Daily Weather History Graph

Daily Weather History Graph

Search for Another Location

Airport or City:

Trip Planner

Search our weather history database for the weather conditions in past years. The results will help you decide how hot, cold, wet, or windy it might be!

Date:

Astronomy

Apr. 07, 2014 Rise Set
Actual Time 6:35 AM MDT 7:31 PM MDT
Civil Twilight 6:07 AM MDT 7:59 PM MDT
Nautical Twilight 5:34 AM MDT 8:31 PM MDT
Astronomical Twilight 5:00 AM MDT 9:06 PM MDT
Moon 12:33 PM MDT (4/7) 2:10 AM MDT (4/7)
Length of Visible Light 13h 51m
Length of Day
12h 56m
First Quarter, 54% of the Moon is Illuminated
Apr 7
First Quarter
Apr 15
Full
Apr 22
Last Quarter
Apr 29
New
May 6
First Quarter

Hourly Weather History & Observations

Time (MDT) Temp. Windchill Dew Point Humidity Pressure Visibility Wind Dir Wind Speed Gust Speed Precip Events Conditions
12:16 AM 44.6 °F 40.7 °F 23.0 °F 43% 29.97 in 10.0 mi West 6.9 mph - N/A   Overcast
12:36 AM 46.4 °F 41.9 °F 19.4 °F 34% 29.97 in 10.0 mi NW 9.2 mph - N/A   Overcast
12:56 AM 42.8 °F 38.0 °F 26.6 °F 53% 29.98 in 10.0 mi ENE 8.1 mph - N/A   Overcast
1:16 AM 42.8 °F - 24.8 °F 49% 29.99 in 10.0 mi Calm Calm - N/A   Mostly Cloudy
1:36 AM 42.8 °F - 23.0 °F 46% 30.00 in 10.0 mi Calm Calm - N/A   Scattered Clouds
1:56 AM 42.8 °F - 26.6 °F 53% 30.00 in 10.0 mi Calm Calm - N/A   Mostly Cloudy
2:16 AM 42.8 °F - 26.6 °F 53% 30.00 in 10.0 mi Calm Calm - N/A   Mostly Cloudy
2:36 AM 41.0 °F - 26.6 °F 57% 30.00 in 10.0 mi Calm Calm - N/A   Overcast
2:56 AM 42.8 °F - 26.6 °F 53% 30.00 in 10.0 mi Calm Calm - N/A   Overcast
3:16 AM 42.8 °F - 26.6 °F 53% 30.01 in 10.0 mi Calm Calm - N/A   Overcast
3:36 AM 42.8 °F - 26.6 °F 53% 30.02 in 10.0 mi Calm Calm - N/A   Overcast
3:56 AM 41.0 °F - 28.4 °F 61% 30.02 in 10.0 mi Calm Calm - N/A   Overcast
4:16 AM 41.0 °F 38.0 °F 26.6 °F 57% 30.03 in 10.0 mi ENE 4.6 mph - N/A   Overcast
4:36 AM 41.0 °F - 28.4 °F 61% 30.04 in 10.0 mi Calm Calm - N/A   Overcast
4:56 AM 41.0 °F 38.0 °F 26.6 °F 57% 30.06 in 10.0 mi NE 4.6 mph - N/A   Overcast
5:16 AM 41.0 °F 39.0 °F 26.6 °F 57% 30.06 in 10.0 mi West 3.5 mph - N/A   Overcast
5:36 AM 41.0 °F 36.4 °F 26.6 °F 57% 30.07 in 10.0 mi WSW 6.9 mph - N/A   Overcast
5:56 AM 41.0 °F - 26.6 °F 57% 30.07 in 10.0 mi Calm Calm - N/A   Overcast
6:16 AM 37.4 °F - 30.2 °F 75% 30.09 in 10.0 mi Calm Calm - N/A   Overcast
6:36 AM 39.2 °F - 28.4 °F 65% 30.09 in 10.0 mi Calm Calm - N/A   Mostly Cloudy
6:56 AM 37.4 °F 34.9 °F 32.0 °F 81% 30.10 in 10.0 mi ENE 3.5 mph - N/A   Scattered Clouds
7:16 AM 37.4 °F - 32.0 °F 81% 30.10 in 10.0 mi Calm Calm - N/A   Mostly Cloudy
7:36 AM 39.2 °F - 32.0 °F 75% 30.12 in 10.0 mi Calm Calm - N/A   Overcast
7:56 AM 41.0 °F - 32.0 °F 70% 30.13 in 10.0 mi Calm Calm - N/A   Mostly Cloudy
8:16 AM 41.0 °F 39.0 °F 28.4 °F 61% 30.13 in 10.0 mi SE 3.5 mph - N/A   Overcast
8:36 AM 41.0 °F 38.0 °F 26.6 °F 57% 30.13 in 10.0 mi SE 4.6 mph - N/A   Mostly Cloudy
8:56 AM 42.8 °F 40.1 °F 28.4 °F 57% 30.14 in 10.0 mi East 4.6 mph - N/A   Scattered Clouds
9:16 AM 42.8 °F 41.1 °F 24.8 °F 49% 30.14 in 10.0 mi NE 3.5 mph - N/A   Mostly Cloudy
9:36 AM 42.8 °F 40.1 °F 24.8 °F 49% 30.15 in 10.0 mi NE 4.6 mph - N/A   Overcast
9:56 AM 42.8 °F 41.1 °F 26.6 °F 53% 30.16 in 10.0 mi ESE 3.5 mph - N/A   Overcast
10:16 AM 42.8 °F - 24.8 °F 49% 30.16 in 10.0 mi Calm Calm - N/A   Overcast
10:36 AM 44.6 °F 43.1 °F 24.8 °F 46% 30.16 in 10.0 mi SSW 3.5 mph - N/A   Overcast
10:56 AM 46.4 °F - 23.0 °F 40% 30.16 in 10.0 mi Calm Calm - N/A   Overcast
11:16 AM 46.4 °F - 21.2 °F 37% 30.16 in 10.0 mi Calm Calm - N/A   Overcast
11:36 AM 46.4 °F 40.1 °F 17.6 °F 32% 30.14 in 10.0 mi North 15.0 mph 18.4 mph N/A   Overcast
11:56 AM 50.0 °F - 17.6 °F 28% 30.14 in 10.0 mi NNE 13.8 mph 20.7 mph N/A   Mostly Cloudy
12:16 PM 50.0 °F - 19.4 °F 30% 30.14 in 10.0 mi North 11.5 mph - N/A   Overcast
12:36 PM 50.0 °F - 19.4 °F 30% 30.13 in 10.0 mi NNW 3.5 mph - N/A   Overcast
12:56 PM 50.0 °F - 17.6 °F 28% 30.13 in 10.0 mi SW 3.5 mph - N/A   Overcast
1:16 PM 53.6 °F - 17.6 °F 24% 30.12 in 10.0 mi NNW 10.4 mph 16.1 mph N/A   Scattered Clouds
1:36 PM 51.8 °F - 14.0 °F 22% 30.12 in 10.0 mi NNW 11.5 mph 23.0 mph N/A   Scattered Clouds
2:16 PM 53.6 °F - 14.0 °F 21% 30.11 in 10.0 mi NW 19.6 mph 24.2 mph N/A   Scattered Clouds
2:36 PM 53.6 °F - 12.2 °F 19% 30.11 in 10.0 mi NW 18.4 mph 27.6 mph N/A   Scattered Clouds
2:56 PM 53.6 °F - 14.0 °F 21% 30.11 in 10.0 mi North 10.4 mph 27.6 mph N/A   Scattered Clouds
3:16 PM 55.4 °F - 12.2 °F 18% 30.10 in 10.0 mi NNW 17.3 mph 24.2 mph N/A   Scattered Clouds
3:36 PM 55.4 °F - 12.2 °F 18% 30.10 in 10.0 mi North 10.4 mph 24.2 mph N/A   Scattered Clouds
3:56 PM 55.4 °F - 14.0 °F 20% 30.10 in 10.0 mi NNW 21.9 mph 27.6 mph N/A   Scattered Clouds
4:16 PM 55.4 °F - 12.2 °F 18% 30.09 in 10.0 mi NW 17.3 mph 28.8 mph N/A   Clear
4:36 PM 57.2 °F - 14.0 °F 18% 30.09 in 10.0 mi NNW 21.9 mph 27.6 mph N/A   Scattered Clouds
4:56 PM 55.4 °F - 14.0 °F 20% 30.10 in 10.0 mi NW 18.4 mph 25.3 mph N/A   Mostly Cloudy
5:16 PM 57.2 °F - 19.4 °F 23% 30.11 in 10.0 mi WNW 11.5 mph 17.3 mph N/A   Mostly Cloudy
5:36 PM 55.4 °F - 19.4 °F 25% 30.11 in 10.0 mi West 19.6 mph 26.5 mph N/A   Scattered Clouds
5:56 PM 53.6 °F - 19.4 °F 26% 30.12 in 10.0 mi West 13.8 mph - N/A   Scattered Clouds
6:16 PM 53.6 °F - 19.4 °F 26% 30.13 in 10.0 mi West 13.8 mph - N/A   Scattered Clouds
6:36 PM 53.6 °F - 19.4 °F 26% 30.14 in 10.0 mi WNW 10.4 mph - N/A   Clear
6:56 PM 51.8 °F - 19.4 °F 28% 30.14 in 10.0 mi West 12.7 mph 16.1 mph N/A   Clear
7:16 PM 50.0 °F - 17.6 °F 28% 30.14 in 10.0 mi WNW 9.2 mph - N/A   Clear
7:36 PM 50.0 °F - 17.6 °F 28% 30.14 in 10.0 mi WNW 3.5 mph - N/A   Scattered Clouds
7:56 PM 48.2 °F - 19.4 °F 32% 30.14 in 10.0 mi SW 5.8 mph - N/A   Scattered Clouds
8:16 PM 48.2 °F - 19.4 °F 32% 30.15 in 10.0 mi SW 5.8 mph - N/A   Scattered Clouds
8:36 PM 46.4 °F 44.3 °F 21.2 °F 37% 30.15 in 10.0 mi SSW 4.6 mph - N/A   Clear
8:56 PM 46.4 °F - 21.2 °F 37% 30.15 in 10.0 mi Calm Calm - N/A   Clear
9:16 PM 46.4 °F 44.3 °F 21.2 °F 37% 30.16 in 10.0 mi ESE 4.6 mph - N/A   Clear
9:36 PM 44.6 °F 43.1 °F 23.0 °F 43% 30.17 in 10.0 mi SE 3.5 mph - N/A   Clear
9:56 PM 44.6 °F - 23.0 °F 43% 30.17 in 10.0 mi Calm Calm - N/A   Clear
10:16 PM 44.6 °F - 23.0 °F 43% 30.18 in 10.0 mi Calm Calm - N/A   Clear
10:36 PM 42.8 °F 41.1 °F 26.6 °F 53% 30.18 in 10.0 mi West 3.5 mph - N/A   Clear
10:56 PM 41.0 °F - 26.6 °F 57% 30.18 in 10.0 mi Calm Calm - N/A   Clear
11:16 PM 41.0 °F 38.0 °F 26.6 °F 57% 30.20 in 10.0 mi East 4.6 mph - N/A   Clear
11:36 PM 41.0 °F - 28.4 °F 61% 30.20 in 10.0 mi Calm Calm - N/A   Clear
11:56 PM 41.0 °F 38.0 °F 28.4 °F 61% 30.20 in 10.0 mi SW 4.6 mph - N/A   Clear